When you browse on this site, cookies collect data to enhance your experience and personalize the content and advertising you see.
Visit our Privacy Policy to learn more. By continuing to use the site, you agree to this use of cookies and data.
  • In Hungary
  • List of Countries
  • For 7 days
  • Water Temperature
  • Weather Map
  • News
  • Weather Widgets
  • user-avatar
    Login

    Hourly Weather Veselovka

    Today, 15 October, Tuesday

    Time Temperature Precipitation Wind Pressure Humidity
    00:00 +6°C° 0 mm 5 mps 737 mmHg 84%
    01:00 +6°C° 0 mm 5 mps 737 mmHg 85%
    02:00 +5°C° 0 mm 5 mps 737 mmHg 87%
    03:00 +5°C° 0 mm 5 mps 737 mmHg 89%
    04:00 +5°C° 0 mm 5 mps 737 mmHg 91%
    05:00 +5°C° 0.3 mm 5 mps 736 mmHg 92%
    06:00 +5°C° 0.3 mm 5 mps 736 mmHg 92%
    07:00 +5°C° 0.3 mm 5 mps 735 mmHg 92%
    08:00 +5°C° 2.2 mm 6 mps 734 mmHg 93%
    09:00 +5°C° 2.2 mm 7 mps 733 mmHg 94%
    10:00 +5°C° 2.2 mm 7 mps 732 mmHg 95%
    11:00 +7°C° 1.7 mm 8 mps 732 mmHg 94%
    12:00 +8°C° 1.7 mm 9 mps 731 mmHg 93%
    13:00 +9°C° 1.7 mm 10 mps 730 mmHg 92%
    14:00 +10°C° 0.2 mm 9 mps 730 mmHg 91%
    15:00 +11°C° 0.2 mm 9 mps 730 mmHg 89%
    16:00 +11°C° 0.2 mm 9 mps 730 mmHg 87%
    17:00 +11°C° 0.6 mm 8 mps 730 mmHg 88%
    18:00 +11°C° 0.6 mm 7 mps 730 mmHg 88%
    19:00 +11°C° 0.6 mm 6 mps 731 mmHg 89%
    20:00 +10°C° 0.1 mm 6 mps 731 mmHg 89%
    21:00 +9°C° 0.1 mm 6 mps 732 mmHg 90%
    22:00 +8°C° 0.1 mm 6 mps 732 mmHg 90%
    23:00 +7°C° 0 mm 5 mps 733 mmHg 89%

    Tomorrow, 16 October, Wednesday

    Time Temperature Precipitation Wind Pressure Humidity
    00:00 +6°C° 0 mm 5 mps 733 mmHg 87%
    01:00 +6°C° 0 mm 4 mps 734 mmHg 85%
    02:00 +5°C° 0.2 mm 4 mps 735 mmHg 86%
    03:00 +5°C° 0.2 mm 5 mps 736 mmHg 86%
    04:00 +4°C° 0.2 mm 6 mps 736 mmHg 87%
    05:00 +4°C° 0.1 mm 6 mps 737 mmHg 85%
    06:00 +3°C° 0.1 mm 6 mps 737 mmHg 83%
    07:00 +3°C° 0.1 mm 5 mps 737 mmHg 80%
    08:00 +3°C° 0 mm 6 mps 738 mmHg 77%
    09:00 +3°C° 0 mm 7 mps 739 mmHg 75%
    10:00 +3°C° 0 mm 7 mps 739 mmHg 72%
    11:00 +3°C° 0 mm 7 mps 740 mmHg 70%
    12:00 +3°C° 0 mm 7 mps 741 mmHg 68%
    13:00 +3°C° 0 mm 7 mps 741 mmHg 67%
    14:00 +3°C° 0 mm 7 mps 741 mmHg 66%
    15:00 +3°C° 0 mm 7 mps 742 mmHg 65%
    16:00 +2°C° 0 mm 7 mps 742 mmHg 65%
    17:00 +2°C° 0 mm 6 mps 743 mmHg 66%
    18:00 +2°C° 0 mm 6 mps 743 mmHg 67%
    19:00 +1°C° 0 mm 6 mps 744 mmHg 67%
    20:00 +1°C° 0 mm 5 mps 744 mmHg 71%
    21:00 0°C° 0 mm 4 mps 744 mmHg 74%
    22:00 -1°C° 0 mm 4 mps 745 mmHg 77%
    23:00 0°C° 0 mm 3 mps 745 mmHg 77%

    Day after tomorrow, 17 October, Thursday

    Time Temperature Precipitation Wind Pressure Humidity
    00:00 0°C° 0 mm 3 mps 745 mmHg 77%
    01:00 +1°C° 0 mm 2 mps 745 mmHg 77%
    02:00 -1°C° 0 mm 2 mps 746 mmHg 79%
    03:00 -1°C° 0 mm 2 mps 746 mmHg 81%
    04:00 +1°C° 0 mm 1 mps 746 mmHg 83%
    05:00 +1°C° 0 mm 1 mps 747 mmHg 83%
    06:00 +1°C° 0 mm 1 mps 747 mmHg 82%
    07:00 +1°C° 0 mm 1 mps 747 mmHg 82%
    08:00 +1°C° 0 mm 1 mps 747 mmHg 77%
    09:00 +1°C° 0 mm 2 mps 747 mmHg 72%
    10:00 +2°C° 0 mm 2 mps 747 mmHg 68%
    11:00 +2°C° 0 mm 3 mps 747 mmHg 66%
    12:00 +3°C° 0 mm 3 mps 746 mmHg 65%
    13:00 +4°C° 0 mm 4 mps 746 mmHg 63%
    14:00 +4°C° 0 mm 4 mps 746 mmHg 63%
    15:00 +4°C° 0 mm 4 mps 746 mmHg 63%
    16:00 +3°C° 0 mm 5 mps 745 mmHg 63%
    17:00 +3°C° 0 mm 5 mps 745 mmHg 65%
    18:00 +3°C° 0 mm 5 mps 744 mmHg 66%
    19:00 +3°C° 0 mm 5 mps 744 mmHg 67%
    20:00 +3°C° 0 mm 6 mps 744 mmHg 67%
    21:00 +3°C° 0 mm 6 mps 743 mmHg 67%
    22:00 +2°C° 0 mm 7 mps 743 mmHg 66%
    23:00 +2°C° 0 mm 7 mps 742 mmHg 66%

    18 October, Friday

    Time Temperature Precipitation Wind Pressure Humidity
    00:00 +2°C° 0 mm 7 mps 741 mmHg 65%
    01:00 +2°C° 0 mm 7 mps 741 mmHg 65%
    02:00 +2°C° 0 mm 7 mps 740 mmHg 64%
    03:00 +2°C° 0 mm 7 mps 740 mmHg 64%
    04:00 +2°C° 0 mm 7 mps 739 mmHg 64%
    05:00 +2°C° 0 mm 7 mps 739 mmHg 65%
    06:00 +2°C° 0 mm 7 mps 738 mmHg 65%
    07:00 0°C° 0 mm 7 mps 738 mmHg 66%
    08:00 +2°C° 0 mm 7 mps 737 mmHg 65%
    09:00 +3°C° 0 mm 7 mps 737 mmHg 64%
    10:00 +4°C° 0 mm 8 mps 737 mmHg 63%
    11:00 +4°C° 0.3 mm 7 mps 737 mmHg 68%
    12:00 +4°C° 0.3 mm 7 mps 737 mmHg 74%
    13:00 +4°C° 0.3 mm 6 mps 737 mmHg 79%
    14:00 +3°C° 0.6 mm 6 mps 738 mmHg 82%
    15:00 +3°C° 0.6 mm 5 mps 738 mmHg 85%
    16:00 +2°C° 0.6 mm 5 mps 738 mmHg 88%
    17:00 +2°C° 0.1 mm 5 mps 739 mmHg 85%
    18:00 +1°C° 0.1 mm 5 mps 739 mmHg 81%
    19:00 0°C° 0.1 mm 5 mps 740 mmHg 78%
    20:00 0°C° 0 mm 5 mps 740 mmHg 79%
    21:00 -1°C° 0 mm 5 mps 741 mmHg 79%
    22:00 -2°C° 0 mm 5 mps 741 mmHg 80%
    23:00 -2°C° 0 mm 5 mps 742 mmHg 80%

    19 October, Saturday

    Time Temperature Precipitation Wind Pressure Humidity
    00:00 -2°C° 0 mm 5 mps 742 mmHg 79%
    01:00 -2°C° 0 mm 5 mps 742 mmHg 78%
    02:00 -2°C° 0 mm 5 mps 743 mmHg 81%
    03:00 -2°C° 0 mm 5 mps 743 mmHg 83%
    04:00 -4°C° 0 mm 5 mps 744 mmHg 85%
    05:00 -4°C° 0 mm 5 mps 744 mmHg 85%
    06:00 -4°C° 0 mm 5 mps 745 mmHg 84%
    07:00 -4°C° 0 mm 5 mps 745 mmHg 84%
    08:00 -2°C° 0 mm 5 mps 746 mmHg 80%
    09:00 -2°C° 0 mm 4 mps 746 mmHg 75%
    10:00 -1°C° 0 mm 4 mps 746 mmHg 70%
    11:00 0°C° 0 mm 4 mps 747 mmHg 66%
    12:00 +2°C° 0 mm 3 mps 747 mmHg 62%
    13:00 +3°C° 0 mm 3 mps 747 mmHg 58%
    14:00 +3°C° 0 mm 3 mps 747 mmHg 58%
    15:00 +4°C° 0 mm 2 mps 748 mmHg 58%
    16:00 +4°C° 0 mm 2 mps 748 mmHg 59%
    17:00 +3°C° 0 mm 2 mps 748 mmHg 63%
    18:00 +2°C° 0 mm 2 mps 748 mmHg 67%
    19:00 +1°C° 0 mm 2 mps 748 mmHg 72%
    20:00 0°C° 0 mm 3 mps 749 mmHg 72%
    21:00 -1°C° 0 mm 3 mps 749 mmHg 73%
    22:00 -1°C° 0 mm 3 mps 749 mmHg 74%
    23:00 -1°C° 0 mm 3 mps 749 mmHg 74%

    20 October, Sunday

    Time Temperature Precipitation Wind Pressure Humidity
    00:00 -2°C° 0 mm 3 mps 749 mmHg 73%
    01:00 -2°C° 0 mm 3 mps 749 mmHg 73%
    02:00 -2°C° 0 mm 3 mps 749 mmHg 72%
    03:00 -3°C° 0 mm 4 mps 750 mmHg 72%
    04:00 -3°C° 0 mm 4 mps 750 mmHg 71%
    05:00 -3°C° 0 mm 4 mps 750 mmHg 71%
    06:00 -3°C° 0 mm 4 mps 750 mmHg 71%
    07:00 -4°C° 0 mm 4 mps 750 mmHg 71%
    08:00 -3°C° 0 mm 4 mps 750 mmHg 68%
    09:00 -2°C° 0 mm 4 mps 750 mmHg 66%
    10:00 -2°C° 0 mm 4 mps 750 mmHg 63%
    11:00 -1°C° 0 mm 4 mps 750 mmHg 60%
    12:00 0°C° 0 mm 4 mps 750 mmHg 57%
    13:00 +1°C° 0 mm 4 mps 750 mmHg 54%
    14:00 +2°C° 0 mm 3 mps 749 mmHg 55%
    15:00 +2°C° 0 mm 3 mps 749 mmHg 56%
    16:00 +3°C° 0 mm 2 mps 749 mmHg 57%
    17:00 +2°C° 0 mm 2 mps 749 mmHg 61%
    18:00 +1°C° 0 mm 2 mps 749 mmHg 64%
    19:00 +1°C° 0 mm 1 mps 749 mmHg 68%
    20:00 +1°C° 0 mm 1 mps 749 mmHg 68%
    21:00 +1°C° 0 mm 1 mps 749 mmHg 68%
    22:00 +1°C° 0 mm 1 mps 749 mmHg 68%
    23:00 0°C° 0 mm 1 mps 749 mmHg 68%
    Show more